Regional Weather Roundup
Issued by NWS

Home | Current Version | Previous Version | Graphics & Text | Print | Product List | Glossary On
Versions: 1 2 3 4 5 6 7 8 9 10 11 12 13 14 15 16 17 18 19 20 21 22 23 24 25 26 27 28 29 30 31 32 33 34 35 36 37 38 39 40 41 42 43 44 45 46 47 48 49 50
571
ASUS43 KLOT 251804
RWRIL

ILLINOIS REGIONAL WEATHER ROUNDUP
NATIONAL WEATHER SERVICE CHICAGO/ROMEOVILLE IL
100 PM CDT FRI MAY 25 2018

NOTE: "FAIR" INDICATES FEW OR NO CLOUDS BELOW 12,000 FEET WITH NO
SIGNIFICANT WEATHER AND/OR OBSTRUCTIONS TO VISIBILITY.

* THESE STATIONS ARE NOT UNDER NWS QUALITY CONTROL. THEY ALSO MAY NOT
  REPORT WEATHER SUCH AS PRECIPITATION OR FOG.

ILZ001-002-007-009-015-016-024-251900-
NORTHWEST ILLINOIS

CITY           SKY/WX    TMP DP  RH WIND       PRES   REMARKS
MOLINE         PTSUNNY   83  67  58 S8        29.86F HX  85
6HR MIN TEMP:  73; 6HR MAX TEMP:  86;

STERLING*        N/A    N/A N/A N/A MISG        N/A
$$

ILZ003-004-008-010-011-017-018-251900-
NORTH CENTRAL ILLINOIS

CITY           SKY/WX    TMP DP  RH WIND       PRES   REMARKS
ROCKFORD       PTSUNNY   86  57  37 SW8G18    29.88F HX  85
6HR MIN TEMP:  66; 6HR MAX TEMP:  86;

FREEPORT*      FAIR      84  63  50 SW9       29.89F HX  85
DE KALB*       FAIR      83  61  46 SW13G20   29.90F HX  84
$$

ILZ005-006-012>014-019>023-251900-
NORTHEAST ILLINOIS

CITY           SKY/WX    TMP DP  RH WIND       PRES   REMARKS
CHICAGO-OHARE  PTSUNNY   87  57  35 SW10      29.88F HX  86
6HR MIN TEMP:  71; 6HR MAX TEMP:  87;

CHICAGO-MIDWAY FAIR      87  60  40 W10       29.89F HX  87
6HR MIN TEMP:  71; 6HR MAX TEMP:  88;

AURORA         PTSUNNY   86  61  42 SW9G17    29.89F HX  86
6HR MIN TEMP:  67; 6HR MAX TEMP:  86;

LANSING*       FAIR      86  63  45 SW6       29.91F HX  87
WAUKEGAN       FAIR      86  61  42 SW8G22    29.87F HX  86
6HR MIN TEMP:  68; 6HR MAX TEMP:  86;

DUPAGE AIRPORT FAIR      84  62  47 SW9G18    29.89F HX  85
6HR MIN TEMP:  65; 6HR MAX TEMP:  86;

WHEELING       FAIR      87  60  40 S10       29.90F HX  87
6HR MIN TEMP:  69; 6HR MAX TEMP:  88;

MORRIS*        FAIR      88  56  34 S9        29.88F HX  87
NORTHERLY ISL    N/A     85  53  33 SW7         N/A  HX  83
$$

LMZ740>746-251900-
SOUTHERN LAKE MICHIGAN

STATION/POSITION SKY/WX   TEMP    WIND        PRES    VSBY  WAVE
                          AIR SEA DIR/SP/G                  HT/PER
                          (F)     (DEG/KT/KT) (MB)    (MI)  (FT/S)
SOUTHERN BUOY              48 39  180/  8/  8 1013.4          0
WILMETTE HARBOR            64 56  110/  8/  8   N/A           0
HARRISON CRIB              79     200/  6/  7   N/A
BURNHAM HARBOR             85     180/  3/ 10   N/A
CALUMET HARBOR             85     240/  3/  8 1012.3F
BURNS HARBOR               76      CALM  /  4 1013.5S
MICHIGAN CITY              80     270/ 10/ 10   N/A
MICHIGAN CITY 6N           74 65  340/  2/  2   N/A           0
ST. JOSEPH                 71 62  260/  2/  4 1013.3F         0
$$

ILZ025>027-034>036-040-047-049-050-058-095>099-251900-
WEST-CENTRAL ILLINOIS

CITY           SKY/WX    TMP DP  RH WIND       PRES   REMARKS
QUINCY         CLOUDY    81  71  71 SW7       29.88F HX  85
GALESBURG*     TSTM      72  64  76 E10G18    29.91R
MACOMB*        LGT RAIN  75  68  80 CALM      29.90F
$$

ILZ028>032-037-038-041>044-048-051>054-059>061-251900-
CENTRAL ILLINOIS

CITY           SKY/WX    TMP DP  RH WIND       PRES   REMARKS
BLOOMINGTON    FAIR      89  60  37 S14       29.90F HX  89
DECATUR        FAIR      85  61  44 SW12      29.91F HX  85
PEORIA         PTSUNNY   86  67  52 S10       29.88F HX  89
6HR MIN TEMP:  69; 6HR MAX TEMP:  87;

LACON*         FAIR      85  66  52 S8        29.87F HX  87
LINCOLN*       FAIR      90  65  42 SW3       29.88F HX  92
SPRINGFIELD    FAIR      89  65  44 S14       29.89F HX  91
6HR MIN TEMP:  72; 6HR MAX TEMP:  89;

TAYLORVILLE    NOT AVBL
$$

ILZ033-039-045-046-055>057-062-063-251900-
EAST-CENTRAL ILLINOIS

CITY           SKY/WX    TMP DP  RH WIND       PRES   REMARKS
CHAMPAIGN      FAIR      89  56  32 S12       29.92F HX  87
DANVILLE*      FAIR      86  58  38 W8        29.91F HX  85
MATTOON        FAIR      85  63  47 VRB6      29.93F HX  86
$$

ILZ079-100>102-251900-
SOUTHWEST ILLINOIS

CITY           SKY/WX    TMP DP  RH WIND       PRES   REMARKS
BELLEVILLE     CLOUDY    84  68  58 W8        29.89F HX  87
CAHOKIA*       CLOUDY    87  67  51 S9        29.89F HX  90
SPARTA*        PTSUNNY   85  71  63 S7        29.92F HX  91
$$

ILZ064>066-069>071-074>076-080>082-084>086-088>090-092>094-251900-
SOUTH-CENTRAL ILLINOIS

CITY           SKY/WX    TMP DP  RH WIND       PRES   REMARKS
CARBONDALE     FAIR      85  70  60 SW9       29.92F HX  89
6HR MIN TEMP:  68; 6HR MAX TEMP:  85;

CAIRO*         FAIR      85  68  56 SW8       29.93F HX  89
MARION         PTSUNNY   82  68  61 S7        29.94F HX  85
MT. VERNON     FAIR      89  66  46 S10       29.92F HX  91
CENTRALIA*     MOSUNNY   87  67  50 S8        29.92F HX  90
SALEM*         FAIR      88  64  43 S6        29.93F HX  89
METROPOLIS*    CLOUDY    81  72  73 W6G22     29.97R HX  85
$$

ILZ067-068-072-073-078-083-087-091-251900-
SOUTHEAST ILLINOIS

CITY           SKY/WX    TMP DP  RH WIND       PRES   REMARKS
LAWRENCEVILLE  FAIR      88  51  28 SW8       29.94F HX  85
FLORA*         FAIR      89  64  42 SW10G16   29.94F HX  90
FAIRFIELD*     PTSUNNY   86  64  47 SE8       29.92F HX  87
HARRISBURG*    FAIR      79  69  71 NE5       29.95F HX  82
ROBINSON*      FAIR      86  60  41 S6        29.95F HX  85
$$

ABBREVIATIONS USED IN REMARKS
   TC - TEMPERATURE IN CELSIUS
  WCI - WIND CHILL INDEX
   HX - HEAT INDEX
  VSB - VISIBILITY
$$





USA.gov is the U.S. government's official web portal to all federal, state and local government web resources and services.